| time (UTC) | temp F | wind direction | speed knots | gust knots | rain 1hr in | rain 24hr in | rain mn in | humidity % | barometer mb |
| 20260507231339 | 62 | 4 | 2.6 | 3.5 | 0.00 | 0.00 | 0.00 | 39 | 1011.3 |
| 20260507230835 | 62 | 350 | 3.5 | 6.1 | 0.00 | 0.00 | 0.00 | 37 | 1011.3 |
| 20260507230333 | 61 | 335 | 5.2 | 7.0 | 0.00 | 0.00 | 0.00 | 39 | 1011.1 |
| 20260507225832 | 61 | 277 | 2.6 | 3.5 | 0.00 | 0.00 | 0.00 | 40 | 1011.2 |
| 20260507225329 | 62 | 330 | 1.7 | 7.8 | 0.00 | 0.00 | 0.00 | 39 | 1011.2 |
| 20260507224825 | 63 | 296 | 4.3 | 5.2 | 0.00 | 0.00 | 0.00 | 37 | 1011.1 |
| 20260507224322 | 62 | 264 | 6.1 | 8.7 | 0.00 | 0.00 | 0.00 | 37 | 1011.2 |
| 20260507223818 | 62 | 281 | 3.5 | 7.0 | 0.00 | 0.00 | 0.00 | 39 | 1010.9 |
| 20260507223314 | 64 | 294 | 2.6 | 6.1 | 0.00 | 0.00 | 0.00 | 39 | 1010.8 |
| 20260507222812 | 64 | 316 | 5.2 | 8.7 | 0.00 | 0.00 | 0.00 | 37 | 1010.8 |
| 20260507222308 | 64 | 330 | 2.6 | 5.2 | 0.00 | 0.00 | 0.00 | 39 | 1010.7 |
| 20260507221805 | 63 | 323 | 5.2 | 7.8 | 0.00 | 0.00 | 0.00 | 37 | 1010.6 |
| 20260507221301 | 63 | 348 | 4.3 | 7.8 | 0.00 | 0.00 | 0.00 | 36 | 1010.7 |
| 20260507220757 | 62 | 334 | 6.1 | 7.8 | 0.00 | 0.00 | 0.00 | 37 | 1010.5 |
| 20260507220256 | 62 | 310 | 7.0 | 9.6 | 0.00 | 0.00 | 0.00 | 37 | 1010.4 |
| 20260507215752 | 64 | 338 | 7.0 | 12.2 | 0.00 | 0.00 | 0.00 | 37 | 1010.4 |
| 20260507215249 | 64 | 6 | 1.7 | 7.8 | 0.00 | 0.00 | 0.00 | 38 | 1010.2 |
| 20260507214746 | 64 | 344 | 6.1 | 12.2 | 0.00 | 0.00 | 0.00 | 36 | 1010.2 |
| 20260507214244 | 64 | 294 | 6.1 | 7.0 | 0.00 | 0.00 | 0.00 | 35 | 1010.1 |
| 20260507213738 | 63 | 313 | 3.5 | 5.2 | 0.00 | 0.00 | 0.00 | 36 | 1010.1 |
| 20260507213236 | 65 | 338 | 5.2 | 7.8 | 0.00 | 0.00 | 0.00 | 37 | 1010.4 |
| 20260507212732 | 64 | 338 | 6.1 | 8.7 | 0.00 | 0.00 | 0.00 | 34 | 1010.1 |
| 20260507212229 | 63 | 332 | 5.2 | 7.0 | 0.00 | 0.00 | 0.00 | 38 | 1010.2 |
| 20260507211726 | 65 | 266 | 1.7 | 9.6 | 0.00 | 0.00 | 0.00 | 36 | 1009.9 |
| 20260507211221 | 64 | 293 | 5.2 | 8.7 | 0.00 | 0.00 | 0.00 | 38 | 1009.8 |
| 20260507210719 | 66 | 354 | 7.0 | 7.8 | 0.00 | 0.00 | 0.00 | 36 | 1009.7 |
| 20260507210216 | 65 | 4 | 5.2 | 8.7 | 0.00 | 0.00 | 0.00 | 37 | 1009.8 |
| 20260507205712 | 65 | 327 | 7.0 | 12.2 | 0.00 | 0.00 | 0.00 | 35 | 1010.0 |
| 20260507205209 | 66 | 336 | 7.0 | 8.7 | 0.00 | 0.00 | 0.00 | 36 | 1009.9 |
| 20260507204705 | 65 | 346 | 4.3 | 12.2 | 0.00 | 0.00 | 0.00 | 36 | 1009.8 |
| 20260507204203 | 66 | 311 | 7.0 | 8.7 | 0.00 | 0.00 | 0.00 | 35 | 1009.9 |
| 20260507203701 | 65 | 8 | 5.2 | 7.8 | 0.00 | 0.00 | 0.00 | 36 | 1009.9 |
| 20260507203158 | 65 | 317 | 3.5 | 7.0 | 0.00 | 0.00 | 0.00 | 37 | 1010.0 |
| 20260507202653 | 65 | 267 | 7.0 | 7.8 | 0.00 | 0.00 | 0.00 | 35 | 1009.9 |
| 20260507202150 | 65 | 296 | 5.2 | 7.8 | 0.00 | 0.00 | 0.00 | 38 | 1010.2 |
| 20260507201644 | 65 | 331 | 3.5 | 8.7 | 0.00 | 0.00 | 0.00 | 42 | 1010.0 |
| 20260507201142 | 65 | 13 | 9.6 | 12.2 | 0.00 | 0.00 | 0.00 | 34 | 1010.2 |
| 20260507200638 | 65 | 349 | 7.0 | 13.0 | 0.00 | 0.00 | 0.00 | 38 | 1010.1 |
| 20260507200134 | 65 | 338 | 11.3 | 12.2 | 0.00 | 0.00 | 0.00 | 35 | 1010.2 |
| 20260507195631 | 66 | 282 | 5.2 | 7.8 | 0.00 | 0.00 | 0.00 | 35 | 1010.2 |
| 20260507195128 | 65 | 8 | 7.0 | 14.8 | 0.00 | 0.00 | 0.00 | 38 | 1010.1 |
| 20260507194625 | 64 | 310 | 4.3 | 7.0 | 0.00 | 0.00 | 0.00 | 40 | 1010.4 |
| 20260507194120 | 65 | 275 | 4.3 | 7.8 | 0.00 | 0.00 | 0.00 | 40 | 1010.4 |
| 20260507193618 | 66 | 306 | 7.8 | 9.6 | 0.00 | 0.00 | 0.00 | 37 | 1010.2 |
| 20260507193115 | 66 | 325 | 6.1 | 11.3 | 0.00 | 0.00 | 0.00 | 38 | 1010.4 |
| 20260507192611 | 66 | 254 | 1.7 | 7.0 | 0.00 | 0.00 | 0.00 | 37 | 1010.4 |
| 20260507192108 | 66 | 335 | 5.2 | 7.8 | 0.00 | 0.00 | 0.00 | 42 | 1010.2 |
| 20260507191603 | 66 | 208 | 4.3 | 8.7 | 0.00 | 0.00 | 0.00 | 38 | 1010.4 |
| 20260507191100 | 66 | 286 | 7.0 | 11.3 | 0.00 | 0.00 | 0.00 | 38 | 1010.2 |
| 20260507190558 | 66 | 14 | 5.2 | 8.7 | 0.00 | 0.00 | 0.00 | 38 | 1010.2 |
| 20260507190056 | 67 | 350 | 7.8 | 9.6 | 0.00 | 0.00 | 0.00 | 38 | 1010.5 |
| 20260507185554 | 66 | 313 | 4.3 | 7.0 | 0.00 | 0.00 | 0.00 | 37 | 1010.4 |
| 20260507185050 | 65 | 240 | 1.7 | 8.7 | 0.00 | 0.00 | 0.00 | 37 | 1010.7 |
| 20260507184549 | 67 | 294 | 5.2 | 7.8 | 0.00 | 0.00 | 0.00 | 40 | 1010.2 |
| 20260507184047 | 66 | 359 | 2.6 | 7.0 | 0.00 | 0.00 | 0.00 | 41 | 1010.6 |
| 20260507183542 | 66 | 275 | 4.3 | 9.6 | 0.00 | 0.00 | 0.00 | 39 | 1010.6 |
| 20260507183039 | 66 | 337 | 5.2 | 7.8 | 0.00 | 0.00 | 0.00 | 38 | 1010.4 |
| 20260507182536 | 65 | 28 | 5.2 | 7.0 | 0.00 | 0.00 | 0.00 | 42 | 1010.5 |
| 20260507182032 | 65 | 321 | 6.1 | 8.7 | 0.00 | 0.00 | 0.00 | 40 | 1010.5 |
| 20260507181529 | 65 | 297 | 7.0 | 8.7 | 0.00 | 0.00 | 0.00 | 40 | 1010.7 |
| 20260507181025 | 66 | 341 | 3.5 | 7.0 | 0.00 | 0.00 | 0.00 | 37 | 1010.7 |
| 20260507180521 | 65 | 30 | 1.7 | 6.1 | 0.00 | 0.00 | 0.00 | 43 | 1010.6 |
| 20260507180019 | 66 | 331 | 4.3 | 8.7 | 0.00 | 0.00 | 0.00 | 39 | 1010.6 |
| 20260507175515 | 65 | 270 | 0.9 | 2.6 | 0.00 | 0.00 | 0.00 | 42 | 1010.7 |
| 20260507175012 | 64 | 301 | 3.5 | 7.0 | 0.00 | 0.00 | 0.00 | 43 | 1011.1 |
| 20260507174509 | 64 | 345 | 4.3 | 7.8 | 0.00 | 0.00 | 0.00 | 38 | 1011.1 |
| 20260507174007 | 64 | 319 | 6.1 | 11.3 | 0.00 | 0.00 | 0.00 | 42 | 1011.2 |
| 20260507173504 | 64 | 343 | 7.0 | 9.6 | 0.00 | 0.00 | 0.00 | 36 | 1011.1 |
| 20260507173001 | 65 | 325 | 3.5 | 5.2 | 0.00 | 0.00 | 0.00 | 42 | 1011.0 |
| 20260507172457 | 64 | 38 | 3.5 | 8.7 | 0.00 | 0.00 | 0.00 | 39 | 1011.1 |
| 20260507171954 | 65 | 240 | 3.5 | 6.1 | 0.00 | 0.00 | 0.00 | 43 | 1011.4 |
| 20260507171449 | 64 | 232 | 1.7 | 8.7 | 0.00 | 0.00 | 0.00 | 43 | 1011.5 |
| 20260507170947 | 64 | 19 | 5.2 | 8.7 | 0.00 | 0.00 | 0.00 | 43 | 1011.5 |
| 20260507170443 | 64 | 351 | 5.2 | 7.0 | 0.00 | 0.00 | 0.00 | 43 | 1011.6 |
| 20260507165940 | 63 | 263 | 4.3 | 9.6 | 0.00 | 0.00 | 0.00 | 41 | 1011.7 |
| 20260507165436 | 64 | 20 | 3.5 | 11.3 | 0.00 | 0.00 | 0.00 | 45 | 1011.6 |
| 20260507164931 | 63 | 323 | 5.2 | 9.6 | 0.00 | 0.00 | 0.00 | 47 | 1012.0 |
| 20260507164429 | 61 | 21 | 2.6 | 5.2 | 0.00 | 0.00 | 0.00 | 44 | 1012.1 |
| 20260507163926 | 62 | 8 | 4.3 | 9.6 | 0.00 | 0.00 | 0.00 | 41 | 1011.9 |
| 20260507163423 | 63 | 295 | 2.6 | 9.6 | 0.00 | 0.00 | 0.00 | 46 | 1012.1 |
| 20260507162920 | 62 | 273 | 2.6 | 3.5 | 0.00 | 0.00 | 0.00 | 45 | 1012.3 |
| 20260507162415 | 62 | 320 | 7.0 | 8.7 | 0.00 | 0.00 | 0.00 | 44 | 1012.2 |
| 20260507161913 | 62 | 345 | 4.3 | 5.2 | 0.00 | 0.00 | 0.00 | 46 | 1012.3 |
| 20260507161409 | 62 | 279 | 7.8 | 9.6 | 0.00 | 0.00 | 0.00 | 47 | 1012.1 |
| 20260507160906 | 62 | 1 | 3.5 | 3.5 | 0.00 | 0.00 | 0.00 | 44 | 1012.3 |
| 20260507160401 | 61 | 276 | 0.0 | 3.5 | 0.00 | 0.00 | 0.00 | 44 | 1012.2 |
| 20260507155858 | 60 | 16 | 7.0 | 8.7 | 0.00 | 0.00 | 0.00 | 46 | 1012.4 |
| 20260507155353 | 62 | 55 | 1.7 | 6.1 | 0.00 | 0.00 | 0.00 | 48 | 1012.3 |
| 20260507154850 | 62 | 83 | 1.7 | 3.5 | 0.00 | 0.00 | 0.00 | 45 | 1012.4 |
| 20260507154348 | 62 | 257 | 4.3 | 6.1 | 0.00 | 0.00 | 0.00 | 48 | 1012.6 |
| 20260507153845 | 61 | 306 | 0.9 | 2.6 | 0.00 | 0.00 | 0.00 | 49 | 1012.7 |
| 20260507153341 | 61 | 282 | 1.7 | 2.6 | 0.00 | 0.00 | 0.00 | 47 | 1012.8 |
| 20260507152838 | 59 | 321 | 2.6 | 5.2 | 0.00 | 0.00 | 0.00 | 49 | 1012.9 |
| 20260507152334 | 61 | 41 | 4.3 | 6.1 | 0.00 | 0.00 | 0.00 | 50 | 1012.9 |
| 20260507151830 | 61 | 184 | 0.9 | 1.7 | 0.00 | 0.00 | 0.00 | 49 | 1012.9 |
| 20260507151326 | 60 | 125 | 2.6 | 3.5 | 0.00 | 0.00 | 0.00 | 47 | 1013.0 |
| 20260507150824 | 59 | 136 | 2.6 | 3.5 | 0.00 | 0.00 | 0.00 | 52 | 1013.2 |
| 20260507150320 | 59 | 159 | 0.0 | 1.7 | 0.00 | 0.00 | 0.00 | 49 | 1013.2 |
| 20260507145816 | 58 | 97 | 2.6 | 3.5 | 0.00 | 0.00 | 0.00 | 55 | 1013.5 |
| 20260507145313 | 58 | 104 | 1.7 | 2.6 | 0.00 | 0.00 | 0.00 | 49 | 1013.5 |
| 20260507144810 | 58 | 128 | 2.6 | 2.6 | 0.00 | 0.00 | 0.00 | 54 | 1013.7 |
| 20260507144307 | 58 | 180 | 0.0 | 1.7 | 0.00 | 0.00 | 0.00 | 53 | 1013.8 |
| 20260507143804 | 58 | 118 | 1.7 | 2.6 | 0.00 | 0.00 | 0.00 | 53 | 1013.8 |
| 20260507143301 | 56 | 222 | 0.9 | 0.9 | 0.00 | 0.00 | 0.00 | 53 | 1013.8 |
| 20260507142757 | 56 | 285 | 0.0 | 1.7 | 0.00 | 0.00 | 0.00 | 56 | 1014.2 |
| 20260507142254 | 55 | 342 | 1.7 | 3.5 | 0.00 | 0.00 | 0.00 | 53 | 1014.4 |
| 20260507141750 | 55 | 303 | 3.5 | 6.1 | 0.00 | 0.00 | 0.00 | 57 | 1014.4 |
| 20260507141247 | 56 | 293 | 1.7 | 5.2 | 0.00 | 0.00 | 0.00 | 54 | 1014.3 |
| 20260507140743 | 58 | 271 | 1.7 | 2.6 | 0.00 | 0.00 | 0.00 | 51 | 1014.6 |
| 20260507140241 | 57 | 102 | 1.7 | 5.2 | 0.00 | 0.00 | 0.00 | 56 | 1014.4 |
| 20260507135738 | 56 | 28 | 1.7 | 6.1 | 0.00 | 0.00 | 0.00 | 53 | 1014.6 |
| 20260507135235 | 57 | 334 | 1.7 | 3.5 | 0.00 | 0.00 | 0.00 | 59 | 1014.7 |
| 20260507134731 | 57 | 254 | 3.5 | 5.2 | 0.00 | 0.00 | 0.00 | 53 | 1014.8 |
| 20260507134228 | 58 | 154 | 1.7 | 2.6 | 0.00 | 0.00 | 0.00 | 59 | 1014.8 |
| 20260507133724 | 55 | 135 | 0.0 | 0.9 | 0.00 | 0.00 | 0.00 | 58 | 1014.6 |
| 20260507133221 | 56 | 44 | 0.0 | 2.6 | 0.00 | 0.00 | 0.00 | 56 | 1014.8 |
| 20260507132718 | 54 | 124 | 0.0 | 0.0 | 0.00 | 0.00 | 0.00 | 65 | 1014.9 |
| 20260507132215 | 54 | 128 | 0.0 | 1.7 | 0.00 | 0.00 | 0.00 | 64 | 1015.0 |
| 20260507131711 | 53 | 238 | 0.9 | 1.7 | 0.00 | 0.00 | 0.00 | 63 | 1015.2 |
| 20260507131209 | 53 | 278 | 0.0 | 0.9 | 0.00 | 0.00 | 0.00 | 62 | 1015.2 |
| 20260507130705 | 53 | 85 | 0.0 | 0.9 | 0.00 | 0.00 | 0.00 | 61 | 1015.1 |
| 20260507130203 | 53 | 102 | 0.9 | 1.7 | 0.00 | 0.00 | 0.00 | 66 | 1015.3 |
| 20260507125702 | 53 | 104 | 0.0 | 0.0 | 0.00 | 0.00 | 0.00 | 63 | 1015.4 |
| 20260507125159 | 53 | 1 | 0.0 | 0.0 | 0.00 | 0.00 | 0.00 | 64 | 1015.2 |
| 20260507124655 | 52 | 351 | 0.0 | 0.0 | 0.00 | 0.00 | 0.00 | 63 | 1015.4 |
| 20260507124153 | 52 | 351 | 0.0 | 0.0 | 0.00 | 0.00 | 0.00 | 67 | 1015.3 |
| 20260507123651 | 52 | 351 | 0.9 | 0.9 | 0.00 | 0.00 | 0.00 | 66 | 1015.3 |
| 20260507123148 | 52 | 332 | 0.0 | 0.0 | 0.00 | 0.00 | 0.00 | 69 | 1015.3 |
| 20260507122643 | 51 | 332 | 0.0 | 0.0 | 0.00 | 0.00 | 0.00 | 72 | 1015.3 |
| 20260507122139 | 51 | 332 | 0.0 | 0.0 | 0.00 | 0.00 | 0.00 | 69 | 1015.3 |
| 20260507121635 | 51 | 332 | 0.0 | 0.0 | 0.00 | 0.00 | 0.00 | 73 | 1015.4 |
| 20260507121131 | 51 | 332 | 0.0 | 0.0 | 0.00 | 0.00 | 0.00 | 77 | 1015.2 |
| 20260507120627 | 51 | 332 | 0.0 | 0.9 | 0.00 | 0.00 | 0.00 | 77 | 1015.0 |
| 20260507120124 | 51 | 321 | 0.0 | 0.0 | 0.00 | 0.00 | 0.00 | 78 | 1015.2 |
| 20260507115621 | 51 | 287 | 0.0 | 0.0 | 0.00 | 0.00 | 0.00 | 77 | 1015.1 |
| 20260507115116 | 51 | 286 | 0.0 | 0.0 | 0.00 | 0.00 | 0.00 | 82 | 1015.0 |
| 20260507114613 | 51 | 286 | 0.0 | 0.0 | 0.00 | 0.00 | 0.00 | 81 | 1014.9 |
| 20260507114110 | 51 | 286 | 0.0 | 0.0 | 0.00 | 0.00 | 0.00 | 81 | 1014.9 |
| 20260507113607 | 50 | 286 | 0.0 | 0.0 | 0.00 | 0.00 | 0.00 | 82 | 1014.8 |
| 20260507113104 | 50 | 287 | 0.0 | 0.0 | 0.00 | 0.00 | 0.00 | 82 | 1014.9 |
| 20260507112602 | 50 | 287 | 0.0 | 0.0 | 0.00 | 0.00 | 0.00 | 81 | 1014.8 |
| 20260507112058 | 50 | 287 | 0.0 | 0.0 | 0.00 | 0.00 | 0.00 | 82 | 1014.8 |
| 20260507111555 | 50 | 287 | 0.0 | 0.0 | 0.00 | 0.00 | 0.00 | 81 | 1014.8 |
| 20260507111052 | 50 | 287 | 0.0 | 0.0 | 0.00 | 0.00 | 0.00 | 81 | 1014.9 |
| 20260507110548 | 50 | 287 | 0.0 | 0.0 | 0.00 | 0.00 | 0.00 | 82 | 1014.9 |
| 20260507110045 | 50 | 287 | 0.0 | 0.0 | 0.00 | 0.00 | 0.00 | 85 | 1014.7 |
| 20260507105542 | 50 | 286 | 0.0 | 0.0 | 0.00 | 0.00 | 0.00 | 85 | 1014.8 |
| 20260507105038 | 50 | 295 | 0.0 | 0.0 | 0.00 | 0.00 | 0.00 | 88 | 1014.4 |
| 20260507104536 | 50 | 295 | 0.0 | 0.0 | 0.00 | 0.00 | 0.00 | 87 | 1014.3 |
| 20260507104032 | 50 | 295 | 0.0 | 0.0 | 0.00 | 0.00 | 0.00 | 86 | 1014.2 |
| 20260507103528 | 50 | 295 | 0.0 | 0.0 | 0.00 | 0.00 | 0.00 | 86 | 1014.1 |
| 20260507103025 | 50 | 295 | 0.0 | 0.0 | 0.00 | 0.00 | 0.00 | 87 | 1014.2 |
| 20260507102521 | 50 | 295 | 0.0 | 0.0 | 0.00 | 0.00 | 0.00 | 86 | 1014.1 |
| 20260507102017 | 50 | 285 | 0.9 | 1.7 | 0.00 | 0.00 | 0.00 | 85 | 1013.9 |
| 20260507101513 | 50 | 298 | 1.7 | 1.7 | 0.00 | 0.00 | 0.00 | 86 | 1013.8 |
| 20260507101010 | 50 | 309 | 0.0 | 0.0 | 0.00 | 0.00 | 0.00 | 85 | 1013.7 |
| 20260507100507 | 50 | 295 | 0.0 | 0.0 | 0.00 | 0.00 | 0.00 | 85 | 1013.6 |
| 20260507100005 | 51 | 253 | 0.0 | 0.0 | 0.00 | 0.00 | 0.00 | 83 | 1013.6 |
| 20260507095503 | 51 | 252 | 0.0 | 0.0 | 0.00 | 0.00 | 0.00 | 84 | 1013.8 |
| 20260507094959 | 51 | 252 | 0.0 | 0.9 | 0.00 | 0.00 | 0.00 | 84 | 1013.7 |
| 20260507094455 | 51 | 350 | 0.0 | 0.0 | 0.00 | 0.00 | 0.00 | 83 | 1013.8 |
| 20260507093953 | 51 | 351 | 0.0 | 0.0 | 0.00 | 0.00 | 0.00 | 83 | 1013.8 |
| 20260507093450 | 51 | 351 | 0.0 | 0.9 | 0.00 | 0.00 | 0.00 | 84 | 1013.8 |
| 20260507092948 | 51 | 269 | 0.0 | 0.0 | 0.00 | 0.00 | 0.00 | 84 | 1013.7 |
| 20260507092444 | 51 | 304 | 0.0 | 0.0 | 0.00 | 0.00 | 0.00 | 82 | 1013.9 |
| 20260507091941 | 51 | 317 | 0.0 | 0.0 | 0.00 | 0.00 | 0.00 | 82 | 1013.6 |
| 20260507091438 | 51 | 322 | 0.0 | 0.0 | 0.00 | 0.00 | 0.00 | 82 | 1013.5 |
| 20260507090933 | 51 | 326 | 0.9 | 1.7 | 0.00 | 0.00 | 0.00 | 81 | 1013.5 |
| 20260507090430 | 51 | 314 | 2.6 | 5.2 | 0.00 | 0.00 | 0.00 | 79 | 1013.5 |
| 20260507085926 | 51 | 304 | 2.6 | 2.6 | 0.00 | 0.00 | 0.00 | 79 | 1013.7 |
| 20260507085424 | 52 | 303 | 2.6 | 3.5 | 0.00 | 0.00 | 0.00 | 79 | 1013.8 |
| 20260507084921 | 52 | 32 | 2.6 | 3.5 | 0.00 | 0.00 | 0.00 | 80 | 1013.8 |
| 20260507084418 | 52 | 4 | 3.5 | 6.1 | 0.00 | 0.00 | 0.00 | 83 | 1013.9 |
| 20260507083915 | 52 | 354 | 1.7 | 1.7 | 0.00 | 0.00 | 0.00 | 84 | 1013.8 |
| 20260507083411 | 52 | 306 | 1.7 | 3.5 | 0.00 | 0.00 | 0.00 | 82 | 1013.8 |
| 20260507082907 | 51 | 339 | 0.9 | 3.5 | 0.00 | 0.00 | 0.00 | 84 | 1013.7 |
| 20260507082403 | 50 | 340 | 0.0 | 1.7 | 0.00 | 0.00 | 0.00 | 89 | 1013.6 |
| 20260507081900 | 50 | 310 | 0.0 | 0.0 | 0.00 | 0.00 | 0.00 | 89 | 1013.6 |
| 20260507081356 | 50 | 301 | 0.0 | 0.0 | 0.00 | 0.00 | 0.00 | 89 | 1013.6 |
| 20260507080853 | 50 | 338 | 0.0 | 0.0 | 0.00 | 0.00 | 0.00 | 90 | 1013.6 |
| 20260507080349 | 50 | 340 | 0.0 | 0.0 | 0.00 | 0.00 | 0.00 | 89 | 1013.5 |
| 20260507075844 | 50 | 358 | 0.9 | 0.9 | 0.00 | 0.00 | 0.00 | 89 | 1013.5 |
| 20260507075341 | 50 | 249 | 0.0 | 0.0 | 0.00 | 0.00 | 0.00 | 88 | 1013.4 |
| 20260507074837 | 49 | 275 | 0.0 | 0.0 | 0.00 | 0.00 | 0.00 | 89 | 1013.4 |
| 20260507074335 | 49 | 269 | 0.0 | 0.0 | 0.00 | 0.00 | 0.00 | 91 | 1013.3 |
| 20260507073832 | 50 | 269 | 0.0 | 0.0 | 0.00 | 0.00 | 0.00 | 90 | 1013.3 |
| 20260507073329 | 50 | 5 | 0.0 | 0.0 | 0.00 | 0.00 | 0.00 | 89 | 1013.2 |
| 20260507072826 | 50 | 5 | 0.0 | 0.9 | 0.00 | 0.00 | 0.00 | 89 | 1013.2 |
| 20260507072323 | 50 | 288 | 0.0 | 0.0 | 0.00 | 0.00 | 0.00 | 86 | 1013.1 |
| 20260507071821 | 50 | 287 | 0.0 | 0.0 | 0.00 | 0.00 | 0.00 | 87 | 1013.5 |
| 20260507071317 | 50 | 269 | 0.9 | 0.9 | 0.00 | 0.00 | 0.00 | 89 | 1013.3 |
| 20260507070814 | 50 | 336 | 0.0 | 0.0 | 0.00 | 0.00 | 0.00 | 88 | 1013.3 |
| 20260507070311 | 51 | 331 | 0.0 | 0.0 | 0.00 | 0.00 | 0.00 | 87 | 1013.5 |
| 20260507065808 | 51 | 333 | 0.0 | 0.0 | 0.00 | 0.00 | 0.00 | 85 | 1013.3 |
| 20260507065306 | 51 | 334 | 0.0 | 0.0 | 0.00 | 0.00 | 0.00 | 84 | 1013.3 |
| 20260507064802 | 52 | 239 | 0.0 | 0.9 | 0.00 | 0.00 | 0.00 | 85 | 1013.2 |
| 20260507064300 | 52 | 239 | 0.0 | 0.0 | 0.00 | 0.00 | 0.00 | 81 | 1013.2 |
| 20260507063758 | 52 | 238 | 0.0 | 0.0 | 0.00 | 0.00 | 0.00 | 83 | 1013.2 |
| 20260507063254 | 52 | 238 | 0.0 | 0.0 | 0.00 | 0.00 | 0.00 | 82 | 1013.4 |
| 20260507062751 | 52 | 237 | 0.0 | 0.0 | 0.00 | 0.00 | 0.00 | 82 | 1013.6 |
| 20260507062248 | 52 | 198 | 0.0 | 0.9 | 0.00 | 0.00 | 0.00 | 81 | 1013.7 |
| 20260507061746 | 52 | 250 | 0.0 | 0.0 | 0.00 | 0.00 | 0.00 | 85 | 1013.6 |
| 20260507061244 | 52 | 250 | 0.0 | 0.0 | 0.00 | 0.00 | 0.00 | 83 | 1013.7 |
| 20260507060742 | 52 | 235 | 0.0 | 0.0 | 0.00 | 0.00 | 0.00 | 82 | 1013.6 |
| 20260507060238 | 53 | 235 | 0.0 | 0.9 | 0.00 | 0.00 | 0.00 | 81 | 1013.9 |
| 20260507055735 | 52 | 282 | 0.9 | 1.7 | 0.00 | 0.00 | 0.00 | 82 | 1013.8 |
| 20260507055230 | 52 | 269 | 0.0 | 0.0 | 0.00 | 0.00 | 0.00 | 84 | 1013.7 |
| 20260507054726 | 52 | 236 | 0.0 | 0.0 | 0.00 | 0.00 | 0.00 | 84 | 1013.8 |
| 20260507054224 | 52 | 263 | 0.0 | 0.0 | 0.00 | 0.00 | 0.00 | 84 | 1014.0 |
| 20260507053721 | 52 | 263 | 0.0 | 0.0 | 0.00 | 0.00 | 0.00 | 84 | 1014.1 |
| 20260507053219 | 52 | 229 | 0.9 | 0.9 | 0.00 | 0.00 | 0.00 | 80 | 1014.1 |
| 20260507052718 | 52 | 222 | 0.0 | 0.0 | 0.00 | 0.00 | 0.00 | 81 | 1013.9 |
| 20260507052213 | 53 | 224 | 0.0 | 0.0 | 0.00 | 0.00 | 0.00 | 84 | 1014.1 |
| 20260507051711 | 53 | 18 | 0.0 | 0.0 | 0.00 | 0.00 | 0.00 | 80 | 1013.8 |
| 20260507051208 | 53 | 18 | 0.0 | 0.0 | 0.00 | 0.00 | 0.00 | 79 | 1013.8 |
| 20260507050704 | 53 | 18 | 0.0 | 0.0 | 0.00 | 0.00 | 0.00 | 79 | 1014.0 |
| 20260507050201 | 53 | 304 | 0.0 | 0.0 | 0.00 | 0.00 | 0.00 | 79 | 1013.9 |
| 20260507045658 | 53 | 353 | 0.0 | 0.0 | 0.00 | 0.00 | 0.00 | 78 | 1013.9 |
| 20260507045155 | 53 | 309 | 0.0 | 0.0 | 0.00 | 0.00 | 0.00 | 78 | 1014.0 |
| 20260507044652 | 53 | 25 | 1.7 | 1.7 | 0.00 | 0.00 | 0.00 | 78 | 1014.0 |
| 20260507044148 | 53 | 351 | 1.7 | 2.6 | 0.00 | 0.00 | 0.00 | 78 | 1013.6 |
| 20260507043644 | 53 | 20 | 1.7 | 1.7 | 0.00 | 0.00 | 0.00 | 78 | 1013.6 |
| 20260507043142 | 53 | 346 | 1.7 | 1.7 | 0.00 | 0.00 | 0.00 | 78 | 1013.6 |
| 20260507042638 | 53 | 7 | 1.7 | 1.7 | 0.00 | 0.00 | 0.00 | 78 | 1013.7 |
| 20260507042132 | 53 | 74 | 0.0 | 0.9 | 0.00 | 0.00 | 0.00 | 80 | 1013.8 |
| 20260507041630 | 53 | 14 | 0.9 | 0.9 | 0.00 | 0.00 | 0.00 | 81 | 1014.0 |
| 20260507041126 | 53 | 236 | 0.0 | 0.0 | 0.00 | 0.00 | 0.00 | 81 | 1013.7 |
| 20260507040624 | 53 | 356 | 0.0 | 0.0 | 0.00 | 0.00 | 0.00 | 81 | 1013.8 |
| 20260507040120 | 53 | 75 | 0.9 | 5.2 | 0.00 | 0.11 | 0.11 | 80 | 1013.7 |
| 20260507035616 | 53 | 15 | 0.9 | 1.7 | 0.00 | 0.11 | 0.11 | 81 | 1013.9 |
| 20260507035112 | 53 | 18 | 1.7 | 6.1 | 0.00 | 0.11 | 0.11 | 82 | 1014.1 |
| 20260507034609 | 53 | 1 | 3.5 | 3.5 | 0.00 | 0.11 | 0.11 | 82 | 1013.8 |
| 20260507034107 | 53 | 345 | 1.7 | 2.6 | 0.00 | 0.11 | 0.11 | 83 | 1013.6 |
| 20260507033605 | 53 | 28 | 1.7 | 2.6 | 0.00 | 0.11 | 0.11 | 82 | 1013.5 |
| 20260507033102 | 54 | 104 | 0.0 | 0.0 | 0.00 | 0.11 | 0.11 | 81 | 1013.9 |
| 20260507032559 | 54 | 24 | 1.7 | 5.2 | 0.00 | 0.11 | 0.11 | 81 | 1014.3 |
| 20260507032055 | 54 | 356 | 2.6 | 3.5 | 0.00 | 0.11 | 0.11 | 82 | 1014.2 |
| 20260507031552 | 54 | 354 | 1.7 | 2.6 | 0.00 | 0.11 | 0.11 | 82 | 1013.7 |
| 20260507031049 | 54 | 332 | 2.6 | 3.5 | 0.00 | 0.11 | 0.11 | 82 | 1013.2 |
| 20260507030545 | 54 | 0 | 0.9 | 1.7 | 0.00 | 0.11 | 0.11 | 81 | 1013.1 |
| 20260507030043 | 54 | 357 | 1.7 | 2.6 | 0.00 | 0.11 | 0.11 | 82 | 1013.6 |
| 20260507025540 | 54 | 13 | 1.7 | 7.0 | 0.00 | 0.11 | 0.11 | 82 | 1013.8 |
| 20260507025038 | 54 | 316 | 2.6 | 5.2 | 0.00 | 0.11 | 0.11 | 82 | 1013.8 |
| 20260507024535 | 54 | 329 | 3.5 | 5.2 | 0.00 | 0.11 | 0.11 | 81 | 1013.8 |
| 20260507024032 | 54 | 350 | 4.3 | 7.8 | 0.00 | 0.11 | 0.11 | 81 | 1014.0 |
| 20260507023527 | 55 | 35 | 3.5 | 9.6 | 0.00 | 0.11 | 0.11 | 82 | 1013.7 |
| 20260507023026 | 55 | 355 | 1.7 | 6.1 | 0.00 | 0.11 | 0.11 | 83 | 1013.7 |
| 20260507022522 | 55 | 26 | 0.0 | 2.6 | 0.00 | 0.11 | 0.11 | 84 | 1013.4 |
| 20260507022017 | 55 | 343 | 0.9 | 1.7 | 0.00 | 0.11 | 0.11 | 85 | 1013.5 |
| 20260507021514 | 56 | 353 | 2.6 | 2.6 | 0.00 | 0.11 | 0.11 | 85 | 1013.2 |
| 20260507021010 | 56 | 6 | 0.0 | 0.9 | 0.00 | 0.11 | 0.11 | 83 | 1013.2 |
| 20260507020508 | 56 | 27 | 0.0 | 0.0 | 0.00 | 0.11 | 0.11 | 81 | 1012.8 |
| 20260507020004 | 56 | 7 | 0.9 | 1.7 | 0.00 | 0.11 | 0.11 | 81 | 1013.0 |
| 20260507015504 | 56 | 304 | 0.0 | 1.7 | 0.00 | 0.11 | 0.11 | 81 | 1012.8 |
| 20260507015001 | 56 | 17 | 3.5 | 3.5 | 0.00 | 0.11 | 0.11 | 81 | 1012.9 |
| 20260507014457 | 56 | 21 | 1.7 | 6.1 | 0.00 | 0.11 | 0.11 | 81 | 1012.5 |
| 20260507013952 | 56 | 339 | 3.5 | 5.2 | 0.00 | 0.11 | 0.11 | 81 | 1012.7 |
| 20260507013449 | 56 | 327 | 5.2 | 6.1 | 0.00 | 0.11 | 0.11 | 81 | 1012.7 |
| 20260507012946 | 56 | 310 | 5.2 | 6.1 | 0.00 | 0.11 | 0.11 | 81 | 1012.8 |
| 20260507012443 | 56 | 35 | 0.9 | 6.1 | 0.00 | 0.11 | 0.11 | 82 | 1012.5 |
| 20260507011940 | 57 | 11 | 4.3 | 7.8 | 0.00 | 0.11 | 0.11 | 81 | 1012.4 |
| 20260507011437 | 57 | 341 | 2.6 | 5.2 | 0.00 | 0.11 | 0.11 | 82 | 1012.3 |
| 20260507010937 | 57 | 352 | 2.6 | 6.1 | 0.00 | 0.11 | 0.11 | 82 | 1012.4 |
| 20260507010432 | 57 | 320 | 3.5 | 3.5 | 0.00 | 0.11 | 0.11 | 82 | 1012.8 |
| 20260507005929 | 57 | 348 | 2.6 | 7.0 | 0.00 | 0.11 | 0.11 | 82 | 1012.5 |
| 20260507005427 | 57 | 322 | 3.5 | 6.1 | 0.00 | 0.11 | 0.11 | 82 | 1012.5 |
| 20260507004923 | 57 | 344 | 1.7 | 3.5 | 0.00 | 0.11 | 0.11 | 82 | 1012.5 |
| 20260507004420 | 57 | 169 | 0.0 | 0.0 | 0.00 | 0.11 | 0.11 | 82 | 1012.0 |
| 20260507003917 | 58 | 344 | 0.9 | 0.9 | 0.00 | 0.11 | 0.11 | 82 | 1012.3 |
| 20260507003412 | 58 | 108 | 0.0 | 0.0 | 0.00 | 0.11 | 0.11 | 82 | 1012.2 |
| 20260507002908 | 58 | 334 | 0.9 | 1.7 | 0.00 | 0.11 | 0.11 | 81 | 1012.6 |
| 20260507002404 | 58 | 64 | 1.7 | 3.5 | 0.00 | 0.11 | 0.11 | 81 | 1012.7 |
| 20260507001902 | 58 | 41 | 2.6 | 5.2 | 0.00 | 0.11 | 0.11 | 81 | 1012.8 |
| 20260507001358 | 58 | 20 | 4.3 | 5.2 | 0.00 | 0.11 | 0.11 | 81 | 1012.9 |
| 20260507000855 | 59 | 22 | 3.5 | 6.1 | 0.00 | 0.11 | 0.11 | 80 | 1012.6 |
| 20260507000350 | 59 | 11 | 4.3 | 11.3 | 0.00 | 0.11 | 0.11 | 77 | 1012.3 |
| 20260506235847 | 59 | 357 | 8.7 | 9.6 | 0.00 | 0.11 | 0.11 | 77 | 1012.3 |
| 20260506235344 | 59 | 358 | 7.8 | 8.7 | 0.00 | 0.11 | 0.11 | 78 | 1012.3 |
| 20260506234840 | 59 | 340 | 4.3 | 7.0 | 0.00 | 0.11 | 0.11 | 79 | 1012.2 |
| 20260506234338 | 59 | 337 | 4.3 | 8.7 | 0.00 | 0.11 | 0.11 | 79 | 1012.2 |
| 20260506233835 | 59 | 2 | 4.3 | 7.0 | 0.00 | 0.11 | 0.11 | 79 | 1012.2 |
| 20260506233325 | 59 | 7 | 4.3 | 7.8 | 0.00 | 0.11 | 0.11 | 80 | 1012.1 |
| 20260506232823 | 60 | 15 | 5.2 | 7.8 | 0.00 | 0.11 | 0.11 | 79 | 1012.0 |
| 20260506232318 | 60 | 358 | 5.2 | 7.8 | 0.00 | 0.11 | 0.11 | 78 | 1012.0 |
| 20260506231815 | 60 | 24 | 7.0 | 8.7 | 0.00 | 0.11 | 0.11 | 78 | 1011.9 |